Dewpoint
5 7 6 6 5 5 5 3 1 0 -0 -1 -3 -4 -5 -4 -5 -5 -5 -5 -4 -2 -2 -3 -3 -3 -2 -2 -2 -3 -3 -3 -4 -5 -6 -7 -6 -5 -4 -5 -4 -4 -2
6 7 6 6 6 5 4 2 1 1 1 0 -0 -2 -3 -3 -4 -4 -5 -4 -2 -2 -2 -2 -2 -3 -1 -0 -1 -2 -2 -2 -2 -2 -4 -5 -5 -4 -5 -5 -5 -5 -2
6 6 6 6 6 4 3 1 0 0 1 1 1 -0 -1 -2 -4 -5 -4 -3 -3 -2 -1 -1 -2 -1 -0 -0 -1 -1 -1 -1 -1 -1 -2 -2 -3 -4 -5 -6 -5 -4 -3
5 5 5 5 4 3 1 0 1 1 2 2 2 1 -0 -2 -4 -3 -4 -4 -3 -2 -2 -1 -0 0 -0 -1 -2 -2 -2 -2 -2 -2 -1 -1 -0 -1 -2 -6 -5 -6 -5
3 4 4 3 3 1 1 -0 0 2 2 2 2 0 -1 -3 -3 -6 -5 -4 -4 -3 -2 -0 1 1 -2 -3 -5 -6 -7 -8 -8 -7 -7 -6 -4 -3 -1 -2 -10 -15 -19
-1 1 3 2 1 0 -1 -2 -1 1 2 1 1 0 -2 -4 -6 -6 -5 -5 -4 -3 -1 0 0 -2 -8 -13 -15 -17 -18 -19 -18 -17 -15 -13 -7 -5 -1 -0 -5 -9 -17
-4 -2 1 1 0 -1 -4 -3 -2 -0 1 2 1 -1 -5 -6 -6 -5 -5 -4 -3 -2 -0 -0 -4 -13 -16 -19 -25 -27 -27 -26 -25 -23 -21 -18 -15 -13 -10 -9 -10 -11 -18
-5 -3 -1 -0 -2 -3 -1 -0 1 1 1 1 -1 -5 -6 -6 -6 -6 -4 -3 -2 -2 -3 -11 -15 -19 -27 -29 -29 -28 -27 -27 -27 -25 -23 -20 -17 -15 -13 -11 -10 -10 -12
-3 -3 -3 -2 -1 -0 -0 1 1 1 -1 -2 -5 -6 -6 -6 -5 -4 -3 -4 -4 -9 -15 -16 -24 -28 -26 -24 -23 -23 -24 -25 -26 -26 -26 -25 -23 -22 -20 -16 -12 -8 -6
-1 -1 -1 -1 -1 -1 -1 -2 -2 -2 -4 -5 -6 -6 -6 -5 -5 -4 -4 -6 -14 -14 -17 -25 -26 -22 -20 -19 -19 -21 -23 -24 -25 -26 -25 -25 -24 -25 -24 -23 -20 -13 -7
-1 -1 -1 -1 -1 -1 -1 -2 -2 -3 -5 -6 -6 -6 -6 -5 -5 -5 -7 -15 -14 -19 -25 -23 -19 -17 -16 -17 -19 -20 -17 -21 -26 -26 -24 -24 -24 -25 -26 -24 -22 -20 -13
-1 -1 -1 -0 -1 -1 -2 -2 -3 -4 -5 -5 -6 -6 -6 -6 -6 -8 -15 -13 -17 -24 -21 -18 -16 -15 -16 -9 -6 -7 -10 -15 -25 -24 -25 -25 -27 -28 -26 -22 -20 -17 -16
-3 -2 -1 -1 -1 -2 -2 -3 -3 -3 -4 -5 -5 -6 -6 -6 -8 -14 -14 -14 -21 -21 -18 -16 -14 -13 -9 -7 -8 -10 -18 -24 -17 -22 -24 -25 -27 -27 -27 -25 -23 -19 -15
-6 -5 -4 -3 -3 -2 -2 -2 -2 -3 -3 -4 -4 -5 -6 -7 -11 -15 -13 -16 -21 -19 -17 -14 -12 -8 -8 -7 -7 -14 -16 -18 -24 -24 -24 -25 -25 -25 -25 -24 -23 -19 -13
-6 -6 -6 -6 -6 -6 -6 -4 -3 -2 -3 -4 -4 -5 -6 -9 -13 -14 -13 -19 -20 -18 -15 -9 -7 -7 -7 -7 -7 -12 -13 -26 -26 -23 -24 -25 -24 -24 -21 -18 -20 -15 -11
-6 -6 -6 -6 -6 -6 -6 -6 -6 -4 -2 -3 -4 -5 -7 -10 -13 -13 -15 -21 -21 -17 -9 -7 -8 -8 -8 -8 -12 -23 -25 -24 -21 -22 -23 -23 -23 -23 -21 -18 -17 -13 -9
-5 -5 -5 -6 -6 -6 -6 -5 -5 -5 -3 -3 -4 -6 -8 -11 -13 -14 -18 -22 -15 -7 -7 -8 -8 -8 -8 -13 -21 -25 -24 -21 -20 -21 -22 -23 -24 -22 -20 -20 -17 -15 -14
-4 -5 -5 -5 -5 -5 -5 -5 -5 -4 -3 -3 -5 -7 -10 -12 -14 -16 -22 -13 -6 -7 -8 -7 -6 -11 -15 -19 -22 -23 -22 -20 -19 -21 -21 -21 -21 -21 -19 -18 -18 -15 -13
-5 -5 -4 -4 -5 -5 -5 -5 -4 -4 -4 -5 -7 -9 -12 -13 -18 -20 -8 -7 -7 -6 -6 -8 -12 -17 -18 -20 -21 -21 -20 -18 -18 -20 -21 -20 -19 -18 -16 -16 -10 -7 -8
-4 -4 -4 -4 -5 -5 -5 -6 -6 -6 -6 -8 -10 -11 -15 -19 -14 -7 -7 -7 -5 -9 -14 -15 -17 -19 -20 -21 -20 -18 -17 -16 -17 -18 -20 -19 -17 -16 -15 -10 -7 -7 -7
-4 -4 -4 -5 -6 -7 -7 -8 -8 -9 -10 -11 -13 -18 -19 -7 -7 -7 -5 -6 -12 -15 -16 -18 -19 -20 -19 -18 -18 -18 -15 -15 -15 -16 -18 -18 -16 -14 -12 -9 -7 -7 -7
-4 -4 -5 -6 -6 -7 -8 -10 -12 -14 -16 -18 -20 -17 -9 -7 -7 -7 -11 -14 -16 -18 -19 -18 -18 -18 -17 -16 -17 -16 -14 -13 -12 -14 -15 -14 -13 -12 -9 -6 -6 -6 -6
-4 -5 -5 -6 -7 -9 -12 -16 -18 -20 -20 -16 -10 -8 -7 -7 -11 -13 -16 -19 -18 -17 -16 -15 -15 -15 -15 -16 -16 -14 -13 -12 -12 -12 -11 -10 -9 -6 -6 -7 -7 -7 -9
-5 -5 -6 -7 -10 -14 -18 -19 -18 -14 -10 -8 -8 -8 -12 -15 -18 -20 -19 -17 -16 -15 -15 -14 -14 -14 -15 -15 -15 -14 -13 -11 -9 -8 -8 -7 -7 -7 -7 -7 -8 -10 -10
-5 -6 -8 -11 -15 -15 -12 -10 -8 -8 -9 -12 -15 -18 -21 -20 -19 -18 -17 -16 -15 -14 -13 -12 -10 -10 -11 -12 -9 -7 -7 -6 -6 -7 -7 -8 -8 -8 -7 -7 -9 -11 -9
-6 -8 -12 -12 -9 -9 -8 -9 -11 -13 -16 -20 -21 -20 -19 -18 -16 -15 -15 -13 -13 -12 -11 -11 -9 -8 -7 -7 -7 -7 -7 -7 -8 -8 -7 -7 -7 -8 -9 -10 -10 -10 -11
Wind_Speed
21 22 21 20 19 20 18 16 15 13 12 11 12 12 11 11 10 9 9 10 11 12 13 13 14 15 15 14 15 15 14 13 15 15 10 5 5 1 3 9 9 10 8
22 22 22 22 21 19 18 18 16 15 13 12 13 13 13 12 11 11 11 12 12 13 14 14 15 14 13 13 14 14 14 12 13 14 11 6 4 6 15 3 6 6 9
24 24 25 24 22 21 19 18 17 16 15 15 14 14 14 13 12 12 13 13 13 13 14 15 14 13 12 13 13 12 12 12 11 12 7 5 4 18 3 11 5 6 7
23 23 24 25 23 21 18 18 19 19 18 16 15 15 14 14 13 13 13 13 13 13 13 13 12 11 10 10 10 11 11 12 13 12 9 10 12 6 10 10 8 17 16
24 24 25 24 23 21 19 19 20 20 19 17 16 16 15 14 14 14 14 13 14 13 13 11 10 9 10 11 11 11 12 13 13 13 14 14 14 13 12 24 24 26 23
22 23 24 24 23 21 20 19 19 19 19 17 17 15 14 14 14 14 13 13 12 11 10 9 9 10 10 10 12 13 13 14 14 14 14 14 14 17 15 24 30 32 32
16 22 24 26 23 20 18 17 17 18 17 17 16 15 14 13 13 13 12 11 9 8 8 8 9 8 10 11 12 13 13 14 14 15 14 14 14 16 18 21 26 29 36
14 16 19 20 18 17 16 16 16 16 16 15 14 13 13 13 13 11 9 8 8 8 7 6 8 9 10 10 10 11 12 13 14 15 16 16 15 16 17 20 22 30 31
15 13 13 14 14 14 12 12 13 13 12 12 13 12 12 12 10 9 9 8 8 7 7 7 8 7 7 8 10 12 14 15 16 17 17 17 16 18 18 19 20 20 25
11 9 7 7 8 8 9 10 10 11 11 12 12 12 12 11 11 10 10 9 8 8 8 8 6 6 7 9 12 14 16 18 18 19 19 19 20 20 20 20 20 20 21
5 4 3 2 3 6 7 8 10 12 12 13 13 13 12 12 12 11 10 10 9 9 8 6 7 8 10 12 14 16 19 21 22 21 21 21 22 22 22 21 21 21 21
2 2 2 2 2 4 6 8 10 12 13 14 15 14 14 13 12 12 11 11 10 10 8 8 8 10 10 14 20 24 26 26 24 24 24 23 23 22 21 22 21 21 21
1 1 4 5 6 7 7 7 8 10 13 15 15 15 15 14 13 13 13 12 11 10 10 10 11 12 14 22 27 30 28 25 26 25 25 23 23 23 23 23 24 23 22
9 6 3 2 6 10 12 13 13 12 12 14 14 15 15 14 14 14 14 13 12 12 11 12 13 16 21 27 32 30 27 28 27 25 24 23 23 24 24 24 24 23 22
9 7 6 6 7 8 10 13 15 16 14 13 13 13 14 15 15 15 15 14 14 13 13 14 17 24 28 32 34 30 32 31 28 25 23 23 23 24 24 24 24 23 23
6 7 8 9 11 12 13 14 14 17 17 13 12 12 14 15 15 15 15 15 14 15 16 20 26 30 32 27 30 32 31 29 28 27 24 24 25 24 24 24 23 22 22
6 9 11 14 14 15 15 15 14 13 14 14 13 12 13 14 15 15 15 14 14 16 21 26 31 32 28 31 32 30 30 30 28 27 26 26 25 25 26 26 25 24 23
9 12 14 15 14 13 12 11 7 5 8 11 11 11 12 13 13 14 13 13 17 22 27 29 29 30 31 32 32 31 31 30 29 28 26 26 27 25 26 27 28 27 28
11 12 13 11 9 7 4 3 2 1 4 7 8 10 11 11 11 11 12 18 25 28 29 28 31 34 36 35 34 33 33 32 30 28 26 27 27 25 25 27 27 28 31
10 9 8 6 4 4 4 4 3 2 3 6 8 10 10 9 9 13 21 25 27 29 30 32 34 37 40 37 33 31 32 32 30 28 27 27 27 27 27 25 25 28 32
7 7 5 2 2 3 3 3 3 3 5 8 7 6 7 9 16 23 26 27 29 31 35 37 39 38 35 34 30 28 28 29 29 29 30 28 27 27 27 25 24 28 30
5 3 2 1 1 2 3 4 2 2 2 4 4 6 11 18 23 25 27 29 33 37 38 38 39 35 31 28 28 26 25 24 26 29 30 29 28 29 28 25 27 26 30
3 1 1 0 1 2 3 2 2 2 3 6 10 15 20 22 24 29 32 34 34 34 35 35 36 35 31 29 26 25 25 24 25 26 27 28 28 26 27 27 29 29 30
3 2 1 0 1 2 2 1 3 6 11 14 17 19 23 27 29 31 31 32 32 33 34 34 35 35 35 33 31 29 28 26 27 27 28 28 28 29 29 34 32 33 26
3 1 2 2 2 1 2 6 9 12 15 18 22 25 26 27 29 29 31 32 33 32 34 34 33 35 36 34 31 28 29 28 28 27 30 32 33 33 29 31 34 32 28
3 3 4 4 4 4 6 9 13 18 22 24 24 24 26 28 30 32 36 32 32 32 32 32 29 30 28 29 29 27 26 26 26 27 29 29 27 29 33 33 29 31 33
Wind_Direction
203 201 201 205 208 209 221 228 231 236 244 252 256 263 273 280 286 283 284 293 297 302 306 306 306 307 308 310 313 317 319 322 323 330 343 334 336 186 333 306 291 303 295
202 200 205 208 212 218 225 228 234 243 250 255 261 264 269 275 284 284 283 289 294 296 300 303 305 305 307 312 315 318 322 330 335 342 348 339 314 213 333 17 319 284 285
207 204 208 212 215 221 227 234 239 246 250 254 261 267 269 276 281 278 285 291 292 292 296 302 306 308 311 315 319 322 327 331 337 339 346 333 315 310 279 306 314 271 274
212 211 209 213 222 227 230 237 239 242 245 254 265 268 270 273 278 282 282 282 284 289 294 298 304 310 314 319 322 324 325 326 329 331 325 312 304 311 307 302 260 286 280
216 213 215 217 220 226 234 240 237 237 243 254 262 266 270 274 276 276 279 283 286 290 293 295 299 304 311 314 317 320 321 319 320 320 318 315 310 302 291 301 303 300 300
221 217 218 215 217 224 231 238 241 243 249 259 263 269 271 272 272 278 281 280 282 284 284 287 292 302 310 316 317 317 315 314 314 312 310 308 308 305 300 299 305 309 310
209 210 210 211 215 224 235 241 244 248 251 258 264 263 265 270 277 278 277 275 274 273 274 283 293 302 308 312 315 319 320 320 317 314 311 308 306 301 300 299 303 305 308
182 192 201 208 219 230 242 245 242 246 253 254 257 262 269 275 276 275 274 269 266 267 273 279 292 302 309 317 323 325 324 322 319 317 315 314 310 303 301 301 304 307 306
166 177 193 209 225 238 244 247 248 247 247 249 255 267 275 275 274 270 267 262 259 253 263 278 289 300 314 321 324 323 322 321 319 316 314 313 312 308 304 300 297 296 300
163 184 200 213 227 235 247 254 252 250 249 254 263 270 270 270 268 262 259 253 248 256 267 273 278 292 305 315 320 320 320 318 316 314 312 311 310 307 305 302 298 292 287
143 155 169 207 239 249 262 265 263 260 261 264 268 272 270 270 267 260 251 247 256 265 267 267 280 297 313 323 329 330 327 321 315 311 309 309 308 307 305 301 298 294 289
134 162 184 239 290 308 300 295 286 280 276 273 274 274 271 269 262 252 246 251 258 257 256 268 286 302 317 333 330 326 321 314 308 308 307 306 306 307 306 305 304 300 296
97 215 245 261 275 280 284 289 293 292 282 274 273 271 269 266 259 252 252 256 255 252 261 277 291 301 313 324 328 324 316 310 306 307 304 303 303 304 304 305 306 305 303
90 93 92 288 283 281 279 280 280 285 286 278 273 271 269 265 259 257 258 259 255 256 268 281 292 303 313 324 323 311 306 303 303 303 300 300 300 302 305 306 308 306 304
81 59 30 360 336 317 297 281 273 272 277 277 277 277 271 264 258 258 261 261 258 263 272 286 301 310 315 317 311 303 304 302 302 299 296 296 296 299 305 307 307 302 300
49 18 353 337 329 322 314 299 290 266 261 264 272 274 272 267 262 262 264 262 263 269 277 295 305 309 315 309 302 301 298 297 297 297 296 294 294 296 300 304 307 297 298
360 343 336 332 322 310 301 298 292 269 247 253 258 270 277 271 263 263 265 265 269 280 292 302 307 306 303 302 301 298 293 291 291 292 293 294 295 297 300 301 300 296 293
336 333 327 321 318 315 313 310 297 272 242 244 259 273 284 274 268 268 267 271 284 294 302 306 303 301 303 302 300 296 291 287 286 287 290 292 294 295 297 298 298 298 301
324 320 321 324 325 324 328 358 24 337 249 258 272 286 284 274 271 271 278 292 299 301 302 300 303 304 302 302 299 295 289 285 284 285 287 289 290 293 294 298 301 300 297
308 314 322 324 341 14 43 48 45 359 276 267 274 282 276 271 272 287 295 300 302 301 301 303 304 304 304 303 299 293 288 285 285 284 283 285 289 293 295 295 291 291 297
297 316 321 330 17 34 33 9 346 292 270 273 277 277 273 281 296 301 303 303 303 304 306 305 304 303 303 301 298 293 287 286 286 285 287 288 289 291 293 295 296 292 300
287 302 322 344 8 357 350 344 341 329 303 293 287 283 293 301 305 305 306 307 309 308 308 307 306 306 304 301 299 296 292 289 286 286 289 290 290 292 296 296 292 293 299
254 283 298 324 351 349 6 13 353 325 309 295 293 298 301 304 305 307 309 311 312 313 311 311 310 310 309 305 303 300 296 292 289 289 290 293 296 294 295 293 296 300 296
241 260 209 210 31 38 36 357 302 289 296 298 302 304 305 306 308 308 311 314 317 316 315 314 311 310 308 308 308 305 300 297 297 297 297 296 296 295 295 295 297 307 298
226 217 180 184 186 202 289 293 297 303 306 308 310 310 311 312 313 315 317 317 317 317 316 315 313 311 309 309 309 306 301 301 299 297 293 294 295 296 295 299 305 306 299
224 208 194 206 251 275 292 299 307 312 313 315 317 318 319 318 317 318 318 320 321 320 318 316 316 312 305 304 304 303 301 301 299 297 295 295 295 298 301 303 302 311 307
Height
1507 1511 1514 1518 1522 1525 1529 1531 1534 1535 1536 1536 1537 1537 1537 1536 1536 1536 1535 1535 1534 1533 1531 1530 1528 1526 1524 1522 1520 1518 1516 1515 1512 1510 1509 1507 1505 1505 1505 1504 1503 1502 1502
1505 1508 1512 1515 1519 1524 1527 1530 1532 1533 1534 1534 1535 1534 1535 1535 1534 1534 1533 1533 1532 1531 1529 1527 1525 1524 1522 1521 1519 1517 1515 1513 1511 1509 1506 1506 1506 1504 1503 1501 1501 1500 1500
1502 1506 1509 1513 1518 1521 1525 1527 1530 1531 1532 1532 1532 1532 1533 1533 1533 1532 1531 1530 1529 1528 1527 1525 1524 1522 1521 1520 1518 1517 1515 1513 1511 1510 1509 1507 1504 1502 1500 1500 1498 1498 1497
1501 1505 1508 1511 1515 1519 1522 1525 1526 1527 1529 1530 1530 1530 1530 1530 1530 1529 1529 1528 1527 1526 1524 1523 1522 1520 1519 1518 1516 1515 1514 1512 1511 1510 1509 1508 1506 1503 1498 1497 1496 1496 1495
1499 1503 1506 1510 1514 1517 1519 1522 1523 1525 1526 1527 1527 1527 1527 1527 1527 1526 1526 1525 1524 1523 1522 1521 1520 1519 1518 1517 1516 1514 1513 1510 1509 1508 1506 1505 1505 1503 1500 1492 1490 1489 1489
1496 1501 1505 1508 1512 1514 1516 1519 1521 1522 1523 1523 1523 1524 1525 1524 1523 1523 1523 1522 1521 1520 1519 1519 1518 1518 1517 1515 1514 1512 1510 1509 1507 1506 1504 1502 1501 1499 1498 1493 1488 1484 1480
1493 1496 1500 1505 1508 1512 1514 1516 1517 1518 1519 1520 1520 1521 1521 1521 1521 1520 1520 1519 1519 1518 1518 1517 1516 1515 1514 1513 1512 1510 1508 1507 1505 1503 1501 1499 1497 1496 1494 1491 1486 1481 1475
1492 1496 1500 1504 1507 1510 1512 1513 1514 1516 1516 1517 1518 1519 1519 1518 1518 1518 1518 1518 1517 1516 1516 1515 1515 1514 1512 1510 1509 1507 1506 1504 1501 1500 1499 1497 1495 1492 1490 1487 1484 1477 1474
1493 1497 1500 1503 1506 1509 1510 1512 1513 1513 1514 1515 1516 1517 1517 1516 1516 1516 1516 1515 1514 1514 1514 1513 1512 1511 1510 1509 1507 1505 1504 1502 1500 1497 1495 1493 1491 1489 1487 1484 1482 1478 1473
1494 1497 1500 1503 1505 1507 1509 1510 1511 1512 1513 1513 1514 1514 1514 1513 1513 1512 1512 1512 1512 1512 1511 1510 1509 1508 1506 1505 1504 1502 1500 1498 1495 1493 1491 1490 1487 1484 1481 1479 1477 1475 1471
1495 1498 1501 1503 1505 1506 1507 1509 1509 1510 1510 1511 1511 1511 1511 1511 1511 1510 1510 1511 1511 1511 1510 1509 1508 1507 1506 1504 1502 1500 1497 1494 1492 1489 1485 1483 1481 1479 1477 1474 1472 1469 1467
1496 1499 1500 1502 1504 1505 1506 1507 1507 1507 1508 1508 1508 1508 1508 1508 1508 1508 1508 1508 1508 1508 1507 1507 1505 1504 1503 1501 1499 1497 1494 1489 1487 1485 1481 1478 1475 1473 1470 1468 1465 1462 1460
1496 1497 1499 1501 1502 1502 1503 1503 1503 1504 1504 1504 1505 1505 1505 1506 1506 1506 1506 1506 1505 1505 1505 1505 1503 1502 1500 1497 1494 1490 1487 1485 1482 1479 1475 1473 1470 1466 1464 1462 1459 1456 1453
1496 1497 1498 1498 1499 1499 1500 1500 1501 1501 1501 1501 1501 1502 1502 1503 1504 1505 1505 1504 1503 1502 1502 1502 1500 1498 1496 1493 1489 1485 1482 1479 1475 1473 1470 1467 1464 1461 1458 1455 1453 1450 1446
1496 1497 1497 1497 1497 1497 1497 1496 1496 1497 1497 1498 1499 1499 1499 1499 1500 1501 1501 1501 1501 1499 1498 1498 1497 1495 1491 1487 1483 1479 1476 1471 1468 1466 1465 1462 1458 1455 1452 1449 1447 1444 1441
1496 1496 1496 1496 1495 1494 1493 1492 1492 1492 1493 1494 1495 1496 1496 1495 1496 1498 1498 1498 1497 1496 1494 1493 1490 1488 1484 1481 1477 1472 1468 1464 1462 1460 1458 1457 1454 1450 1447 1444 1441 1439 1435
1496 1496 1495 1493 1492 1491 1489 1488 1486 1486 1487 1490 1491 1493 1493 1493 1493 1494 1494 1495 1494 1492 1490 1488 1484 1481 1478 1476 1471 1466 1461 1456 1454 1453 1450 1449 1447 1444 1440 1438 1435 1433 1431
1495 1493 1492 1491 1489 1487 1486 1484 1483 1483 1485 1487 1489 1490 1490 1491 1492 1492 1491 1492 1490 1488 1484 1481 1478 1474 1472 1469 1464 1460 1454 1449 1446 1445 1443 1440 1439 1437 1433 1429 1427 1424 1422
1493 1492 1491 1489 1487 1486 1485 1484 1483 1484 1484 1486 1488 1489 1489 1489 1489 1489 1490 1488 1485 1482 1478 1474 1471 1468 1464 1462 1456 1452 1447 1441 1438 1437 1436 1433 1430 1429 1427 1423 1419 1416 1413
1491 1490 1488 1487 1486 1485 1483 1483 1483 1484 1484 1485 1486 1487 1486 1486 1487 1486 1485 1482 1479 1474 1470 1466 1464 1460 1455 1452 1447 1444 1438 1433 1430 1429 1427 1426 1423 1421 1419 1416 1413 1410 1407
1488 1487 1486 1485 1484 1483 1483 1483 1483 1483 1484 1485 1485 1485 1486 1485 1484 1482 1481 1476 1472 1467 1463 1459 1455 1451 1448 1442 1439 1434 1430 1426 1422 1420 1418 1417 1415 1413 1410 1408 1406 1403 1401
1485 1485 1484 1484 1483 1483 1483 1483 1483 1484 1484 1485 1484 1484 1484 1482 1480 1477 1474 1470 1465 1460 1455 1449 1445 1442 1439 1435 1431 1426 1423 1420 1415 1412 1410 1408 1406 1404 1402 1401 1399 1396 1393
1483 1483 1483 1483 1483 1483 1482 1483 1484 1484 1484 1484 1484 1482 1479 1477 1476 1471 1466 1461 1458 1453 1447 1442 1436 1432 1430 1427 1424 1419 1415 1412 1409 1405 1402 1400 1398 1396 1394 1393 1391 1388 1385
1480 1481 1482 1482 1482 1482 1483 1483 1483 1483 1481 1480 1479 1477 1473 1471 1468 1465 1460 1455 1450 1445 1440 1435 1430 1425 1421 1418 1415 1411 1407 1404 1401 1398 1395 1392 1390 1388 1387 1384 1381 1379 1375
1479 1479 1480 1481 1481 1481 1481 1481 1480 1479 1478 1476 1474 1471 1467 1464 1460 1457 1454 1448 1444 1440 1433 1429 1424 1419 1414 1411 1408 1405 1400 1397 1394 1391 1387 1384 1382 1379 1377 1374 1371 1369 1366
1477 1478 1479 1480 1480 1480 1480 1478 1477 1475 1473 1471 1468 1465 1461 1459 1454 1449 1444 1442 1438 1433 1429 1424 1420 1414 1410 1406 1401 1397 1394 1390 1387 1383 1380 1377 1375 1372 1369 1366 1363 1361 1357